User: anonymous   Login
Location: Unspecified
(0.0000°N, 0.0000°E)
Time: 10:21:43
(UTC+00:00)
Language:

DELFI C3 - Orbit

View from above orbital plane
View from above orbital plane
View from above satellite
View from above satellite

Ground track
Ground track

The orbit data is extracted from the following two-line orbital elements,

1 32789U 08021G   22272.32415674  .00013116  00000-0  68585-3 0  9994
2 32789  97.3340 294.9871 0008384 333.7117  26.3690 15.15957302787652
Epoch (UTC): 29 September 2022 07:46:47
Eccentricity: 0.0008384
inclination: 97.3340°
perigee height: 512 km
apogee height: 524 km
right ascension of ascending node: 294.9871°
argument of perigee: 333.7117°
revolutions per day: 15.15957302
mean anomaly at epoch: 26.3690°
orbit number at epoch: 78765

The dashed part of the orbit path shows where the satellite is in the earth's shadow,  

DLR